GW4252 Weather Reports


Display with metric or nautical units.
time (UTC)temp
F
wind
direction
speed
MPH
gust
MPH
rain 1hr
in
rain 24hr
in
rain mn
in
humidity
%
barometer
mb
20260504160211 65 212 16.0 17.0 0.00 0.00 0.00 33 1012.4
20260504150709 63 224 14.0 15.0 0.00 0.00 0.00 36 1013.2
20260504150210 62 260 2.0 15.0 0.00 0.00 0.00 35 1013.3
20260504141208 59 246 7.0 15.0 0.00 0.00 0.00 41 1013.6
20260504140708 58 232 7.0 16.0 0.00 0.00 0.00 41 1013.5
20260504140208 58 223 5.0 16.0 0.00 0.00 0.00 41 1013.5
20260504130709 56 275 6.0 16.0 0.00 0.00 0.00 45 1014.2
20260504130210 56 228 5.0 21.0 0.00 0.00 0.00 45 1014.2
20260504110709 52 216 3.0 11.0 0.00 0.00 0.00 50 1014.3
20260504110210 51 254 4.0 15.0 0.00 0.00 0.00 49 1014.3
20260504100210 49 243 9.0 12.0 0.00 0.00 0.00 53 1013.8
20260504081708 49 246 3.0 9.0 0.00 0.00 0.00 46 1013.5
20260504081208 49 261 2.0 8.0 0.00 0.00 0.00 44 1013.4
20260504080708 49 226 3.0 11.0 0.00 0.00 0.00 44 1013.4
20260504080210 49 241 3.0 11.0 0.00 0.00 0.00 44 1013.4
20260504070214 45 265 6.0 10.0 0.00 0.00 0.00 51 1013.0
20260504060210 42 256 5.0 5.0 0.00 0.00 0.00 60 1013.1
20260504050708 43 265 1.0 6.0 0.00 0.00 0.00 57 1013.0
20260504050211 43 248 2.0 3.0 0.00 0.00 0.00 57 1012.9
20260504045710 44 203 3.0 3.0 0.00 0.00 0.00 56 1012.8
20260504045209 44 201 1.0 2.0 0.00 0.00 0.00 56 1012.9
20260504044711 44 201 1.0 3.0 0.00 0.00 0.00 56 1012.9
20260504044209 44 201 2.0 3.0 0.00 0.00 0.00 56 1013.0
20260504043710 44 201 1.0 3.0 0.00 0.00 0.00 56 1012.8
20260504043210 44 201 2.0 3.0 0.00 0.00 0.00 55 1012.9
20260504042710 45 200 0.0 3.0 0.00 0.00 0.00 55 1012.8
20260504042210 45 200 2.0 3.0 0.00 0.00 0.00 55 1012.8
20260504041711 45 200 0.0 3.0 0.00 0.00 0.00 54 1012.8
20260504041209 45 200 3.0 3.0 0.00 0.00 0.00 54 1012.7
20260504040709 45 190 1.0 2.0 0.00 0.00 0.00 54 1012.7
20260504040214 45 190 1.0 3.0 0.00 0.00 0.00 53 1012.7
20260504035710 45 190 2.0 4.0 0.00 0.00 0.00 53 1012.7
20260504035209 45 186 1.0 5.0 0.00 0.00 0.00 52 1012.6
20260504034711 45 185 2.0 5.0 0.00 0.00 0.00 51 1012.7
20260504033709 46 245 2.0 4.0 0.00 0.00 0.00 50 1012.6
20260504033210 46 243 2.0 4.0 0.00 0.00 0.00 50 1012.7
20260504032710 46 243 2.0 5.0 0.00 0.00 0.00 50 1012.6
20260504032209 47 242 2.0 7.0 0.00 0.00 0.00 50 1012.5
20260504031710 47 252 3.0 7.0 0.00 0.00 0.00 50 1012.6
20260504031210 47 261 3.0 6.0 0.00 0.00 0.00 50 1012.6
20260504030709 47 254 3.0 7.0 0.00 0.00 0.00 51 1012.6
20260504025709 47 259 3.0 6.0 0.00 0.00 0.00 51 1012.6
20260504025209 46 253 4.0 8.0 0.00 0.00 0.00 50 1012.7
20260504024709 46 240 8.0 8.0 0.00 0.00 0.00 47 1012.6
20260504024208 46 248 3.0 7.0 0.00 0.00 0.00 45 1012.7
20260504023709 47 278 2.0 4.0 0.00 0.00 0.00 44 1012.6
20260504023209 47 278 2.0 4.0 0.00 0.00 0.00 44 1012.7
20260504022708 47 279 2.0 4.0 0.00 0.00 0.00 44 1012.7
20260504022208 47 279 2.0 4.0 0.00 0.00 0.00 44 1012.6
20260504021709 47 279 2.0 3.0 0.00 0.00 0.00 44 1012.6
20260504021209 47 279 2.0 3.0 0.00 0.00 0.00 45 1012.6
20260504020709 47 279 1.0 3.0 0.00 0.00 0.00 45 1012.5
20260504020212 47 279 1.0 3.0 0.00 0.00 0.00 45 1012.6
20260504015710 47 279 1.0 3.0 0.00 0.00 0.00 45 1012.5
20260504015210 47 279 1.0 3.0 0.00 0.00 0.00 45 1012.5
20260504014709 47 279 1.0 2.0 0.00 0.00 0.00 44 1012.5
20260504014209 47 279 1.0 3.0 0.00 0.00 0.00 43 1012.5
20260504013709 48 279 2.0 3.0 0.00 0.00 0.00 43 1012.5
20260504013209 48 279 1.0 3.0 0.00 0.00 0.00 43 1012.3
20260504012709 48 279 0.0 0.0 0.00 0.00 0.00 42 1012.3
20260504011710 49 279 0.0 1.0 0.00 0.00 0.00 41 1012.3
20260504011210 49 279 0.0 4.0 0.00 0.00 0.00 41 1012.2
20260504010212 50 279 1.0 4.0 0.00 0.00 0.00 39 1012.1
20260504005210 50 280 1.0 3.0 0.00 0.00 0.00 38 1011.9
20260504004710 51 280 1.0 5.0 0.00 0.00 0.00 37 1011.9
20260504004210 51 280 2.0 6.0 0.00 0.00 0.00 36 1011.8
20260504003709 52 281 2.0 5.0 0.00 0.00 0.00 35 1011.8
20260504003209 52 281 2.0 5.0 0.00 0.00 0.00 33 1011.7
20260504002710 53 286 2.0 5.0 0.00 0.00 0.00 31 1011.6
20260504002210 54 286 2.0 5.0 0.00 0.00 0.00 29 1011.5
20260504001710 54 282 4.0 6.0 0.00 0.00 0.00 28 1011.5
20260504001210 55 264 3.0 7.0 0.00 0.00 0.00 26 1011.5
20260504000709 55 292 2.0 7.0 0.00 0.00 0.00 26 1011.3
20260504000211 55 299 2.0 7.0 0.00 0.00 0.00 25 1011.4
20260503235709 56 292 2.0 8.0 0.00 0.00 0.00 24 1011.3
20260503234709 56 271 6.0 10.0 0.00 0.00 0.00 23 1011.1
20260503234208 57 313 4.0 10.0 0.00 0.00 0.00 22 1011.0
20260503233209 57 280 3.0 12.0 0.00 0.00 0.00 21 1010.7
20260503232709 57 297 3.0 8.0 0.00 0.00 0.00 19 1010.7
20260503232209 58 308 2.0 9.0 0.00 0.00 0.00 20 1010.6
20260503231210 58 273 6.0 13.0 0.00 0.00 0.00 19 1010.5
20260503230714 58 296 9.0 13.0 0.00 0.00 0.00 19 1010.5
20260503230211 58 256 2.0 10.0 0.00 0.00 0.00 19 1010.4
20260503225710 58 341 2.0 10.0 0.00 0.00 0.00 18 1010.4
20260503225209 58 280 7.0 13.0 0.00 0.00 0.00 19 1010.4
20260503224710 58 278 3.0 13.0 0.00 0.00 0.00 18 1010.4
20260503224209 58 257 7.0 12.0 0.00 0.00 0.00 18 1010.4
20260503223709 58 290 5.0 17.0 0.00 0.00 0.00 17 1010.4
20260503223210 58 337 9.0 21.0 0.00 0.00 0.00 18 1010.3
20260503222710 59 313 6.0 21.0 0.00 0.00 0.00 16 1010.3
20260503222209 59 313 4.0 18.0 0.00 0.00 0.00 15 1010.3
20260503221711 59 312 11.0 18.0 0.00 0.00 0.00 17 1010.3
20260503221209 59 306 4.0 17.0 0.00 0.00 0.00 16 1010.3
20260503220709 59 297 10.0 17.0 0.00 0.00 0.00 16 1010.3
20260503215709 59 304 12.0 20.0 0.00 0.00 0.00 17 1010.4
20260503215209 59 292 11.0 21.0 0.00 0.00 0.00 16 1010.4
20260503214711 59 305 14.0 21.0 0.00 0.00 0.00 17 1010.3
20260503214210 59 270 7.0 18.0 0.00 0.00 0.00 18 1010.3
20260503213210 59 300 13.0 25.0 0.00 0.00 0.00 17 1010.2
20260503212709 59 21 3.0 21.0 0.00 0.00 0.00 19 1010.1
20260503212209 59 281 3.0 20.0 0.00 0.00 0.00 17 1010.2
20260503211710 59 318 4.0 20.0 0.00 0.00 0.00 19 1010.1
20260503210209 59 294 25.0 25.0 0.00 0.00 0.00 20 1010.1
20260503205708 60 304 16.0 26.0 0.00 0.00 0.00 19 1010.0
20260503205208 60 289 7.0 15.0 0.00 0.00 0.00 18 1010.1
20260503204709 59 313 6.0 18.0 0.00 0.00 0.00 21 1010.1
20260503203708 59 338 12.0 22.0 0.00 0.00 0.00 20 1010.2
20260503203209 58 259 17.0 25.0 0.00 0.00 0.00 20 1010.2
20260503202708 58 262 6.0 34.0 0.00 0.00 0.00 19 1010.1
20260503202209 59 281 9.0 34.0 0.00 0.00 0.00 19 1010.1
20260503201708 59 282 13.0 26.0 0.00 0.00 0.00 23 1010.2
20260503201208 58 292 7.0 26.0 0.00 0.00 0.00 21 1010.2
20260503200709 58 355 6.0 26.0 0.00 0.00 0.00 22 1010.2
20260503195708 58 254 9.0 24.0 0.00 0.00 0.00 22 1010.2
20260503195209 57 288 14.0 26.0 0.00 0.00 0.00 22 1010.3
20260503194708 57 294 16.0 27.0 0.00 0.00 0.00 24 1010.4
20260503193708 57 323 11.0 17.0 0.00 0.00 0.00 23 1010.4
20260503193208 57 282 6.0 18.0 0.00 0.00 0.00 22 1010.5
20260503192709 57 355 9.0 18.0 0.00 0.00 0.00 25 1010.6
20260503192209 57 336 12.0 17.0 0.00 0.00 0.00 23 1010.6
20260503191709 56 9 13.0 20.0 0.00 0.00 0.00 26 1010.6
20260503191208 56 331 11.0 20.0 0.00 0.00 0.00 25 1010.8
20260503190708 56 302 5.0 16.0 0.00 0.00 0.00 26 1010.8
20260503190208 56 336 2.0 17.0 0.00 0.00 0.00 25 1010.8
20260503185708 56 302 13.0 17.0 0.00 0.00 0.00 24 1010.8
20260503185208 56 270 3.0 17.0 0.00 0.00 0.00 25 1011.0
20260503184708 56 311 6.0 17.0 0.00 0.00 0.00 23 1010.9
20260503184208 55 338 2.0 18.0 0.00 0.00 0.00 28 1011.0
20260503183709 55 310 3.0 19.0 0.00 0.00 0.00 26 1011.1
20260503183209 55 306 10.0 19.0 0.00 0.00 0.00 25 1011.1
20260503182709 55 304 4.0 19.0 0.00 0.00 0.00 25 1011.0
20260503182209 54 350 8.0 19.0 0.00 0.00 0.00 27 1011.0
20260503181209 54 301 5.0 21.0 0.00 0.00 0.00 27 1011.0
20260503180708 55 332 20.0 21.0 0.00 0.00 0.00 25 1011.1
20260503180211 55 344 10.0 21.0 0.00 0.00 0.00 26 1010.9
20260503175209 55 254 10.0 23.0 0.00 0.00 0.00 26 1011.0
20260503174709 55 321 4.0 23.0 0.00 0.00 0.00 26 1011.0
20260503173708 55 297 15.0 19.0 0.00 0.00 0.00 25 1010.9
20260503172708 55 286 9.0 24.0 0.00 0.00 0.00 25 1010.8
20260503172208 55 259 4.0 24.0 0.00 0.00 0.00 24 1010.9
20260503171208 55 304 10.0 27.0 0.00 0.00 0.00 26 1011.0
20260503170709 54 281 4.0 27.0 0.00 0.00 0.00 23 1010.9
20260503170209 55 334 2.0 16.0 0.00 0.00 0.00 24 1011.0